owner,sensor,date,latitude,longitude,vertical_datum,sea_water_temperature,qcFlag
ADCP,ioos:station:wmo:42384:1,2020-09-09T19:52:00Z,27.9920,-90.3255,13.8,29.4,11111222
ADCP,ioos:station:wmo:42384:1,2020-09-09T20:02:00Z,27.9920,-90.3255,13.6,29.4,11111222
ADCP,ioos:station:wmo:42384:1,2020-09-09T20:12:00Z,27.9920,-90.3255,13.6,29.4,11111222
ADCP,ioos:station:wmo:42384:1,2020-09-09T20:22:00Z,27.9920,-90.3255,13.5,29.4,11111222
ADCP,ioos:station:wmo:42384:1,2020-09-09T20:32:00Z,27.9920,-90.3255,13.5,29.4,11111222
ADCP,ioos:station:wmo:42384:1,2020-09-09T20:42:00Z,27.9920,-90.3255,13.4,29.4,11111222
ADCP,ioos:station:wmo:42384:1,2020-09-09T20:52:00Z,27.9920,-90.3255,13.4,29.4,11111222
ADCP,ioos:station:wmo:42384:1,2020-09-09T21:02:00Z,27.9920,-90.3255,13.4,29.4,11111222
ADCP,ioos:station:wmo:42384:1,2020-09-09T21:12:00Z,27.9920,-90.3255,13.3,29.4,11111222
ADCP,ioos:station:wmo:42384:1,2020-09-09T21:22:00Z,27.9920,-90.3255,13.3,29.4,11111222
ADCP,ioos:station:wmo:42384:1,2020-09-09T21:32:00Z,27.9920,-90.3255,13.3,29.4,11111222
ADCP,ioos:station:wmo:42384:1,2020-09-09T21:42:00Z,27.9920,-90.3255,13.3,29.4,11111222
ADCP,ioos:station:wmo:42384:1,2020-09-09T21:52:00Z,27.9920,-90.3255,13.1,29.4,11111222
ADCP,ioos:station:wmo:42384:1,2020-09-09T22:02:00Z,27.9920,-90.3255,13.2,29.5,11111222
ADCP,ioos:station:wmo:42384:1,2020-09-09T22:12:00Z,27.9920,-90.3255,13.3,29.5,11111222
ADCP,ioos:station:wmo:42384:1,2020-09-09T22:22:00Z,27.9920,-90.3255,13.2,29.5,11111222
ADCP,ioos:station:wmo:42384:1,2020-09-09T22:32:00Z,27.9920,-90.3255,13.2,29.5,11111222
ADCP,ioos:station:wmo:42384:1,2020-09-09T22:42:00Z,27.9920,-90.3255,13.1,29.5,11111222
ADCP,ioos:station:wmo:42384:1,2020-09-09T22:52:00Z,27.9920,-90.3255,13.1,29.5,11111222
ADCP,ioos:station:wmo:42384:1,2020-09-09T23:02:00Z,27.9920,-90.3255,13.0,29.5,11111222
ADCP,ioos:station:wmo:42384:1,2020-09-09T23:12:00Z,27.9920,-90.3255,13.1,29.5,11111222
ADCP,ioos:station:wmo:42384:1,2020-09-09T23:22:00Z,27.9920,-90.3255,13.0,29.5,11111222
ADCP,ioos:station:wmo:42384:1,2020-09-09T23:32:00Z,27.9920,-90.3255,13.0,29.5,11111222
ADCP,ioos:station:wmo:42384:1,2020-09-09T23:42:00Z,27.9920,-90.3255,13.0,29.4,11111222
ADCP,ioos:station:wmo:42384:1,2020-09-09T23:52:00Z,27.9920,-90.3255,13.0,29.4,11111222
ADCP,ioos:station:wmo:42384:1,2020-09-10T00:02:00Z,27.9920,-90.3255,13.1,29.4,11111222
ADCP,ioos:station:wmo:42384:1,2020-09-10T00:12:00Z,27.9920,-90.3255,13.0,29.4,11111222
ADCP,ioos:station:wmo:42384:1,2020-09-10T00:22:00Z,27.9920,-90.3255,12.9,29.4,11111222
ADCP,ioos:station:wmo:42384:1,2020-09-10T00:32:00Z,27.9920,-90.3255,13.0,29.4,11111222
ADCP,ioos:station:wmo:42384:1,2020-09-10T00:42:00Z,27.9920,-90.3255,12.9,29.4,11111222
ADCP,ioos:station:wmo:42384:1,2020-09-10T00:52:00Z,27.9920,-90.3255,12.9,29.5,11111222
ADCP,ioos:station:wmo:42384:1,2020-09-10T01:02:00Z,27.9920,-90.3255,12.9,29.5,11111222
ADCP,ioos:station:wmo:42384:1,2020-09-10T01:12:00Z,27.9920,-90.3255,12.9,29.5,11111222
ADCP,ioos:station:wmo:42384:1,2020-09-10T01:22:00Z,27.9920,-90.3255,12.8,29.5,11111222
ADCP,ioos:station:wmo:42384:1,2020-09-10T01:32:00Z,27.9920,-90.3255,13.0,29.5,11111222
ADCP,ioos:station:wmo:42384:1,2020-09-10T01:42:00Z,27.9920,-90.3255,13.0,29.5,11111222
ADCP,ioos:station:wmo:42384:1,2020-09-10T01:52:00Z,27.9920,-90.3255,13.0,29.5,11111222
ADCP,ioos:station:wmo:42384:1,2020-09-10T02:02:00Z,27.9920,-90.3255,13.0,29.5,11111222
ADCP,ioos:station:wmo:42384:1,2020-09-10T02:12:00Z,27.9920,-90.3255,12.8,29.5,11111222
ADCP,ioos:station:wmo:42384:1,2020-09-10T02:22:00Z,27.9920,-90.3255,12.9,29.5,11111222
ADCP,ioos:station:wmo:42384:1,2020-09-10T02:32:00Z,27.9920,-90.3255,12.9,29.6,11111222
ADCP,ioos:station:wmo:42384:1,2020-09-10T02:42:00Z,27.9920,-90.3255,12.9,29.6,11111222
ADCP,ioos:station:wmo:42384:1,2020-09-10T02:52:00Z,27.9920,-90.3255,12.8,29.6,11111222
ADCP,ioos:station:wmo:42384:1,2020-09-10T03:02:00Z,27.9920,-90.3255,12.9,29.5,11111222
ADCP,ioos:station:wmo:42384:1,2020-09-10T03:12:00Z,27.9920,-90.3255,12.9,29.5,11111222
ADCP,ioos:station:wmo:42384:1,2020-09-10T03:22:00Z,27.9920,-90.3255,13.0,29.5,11111222
ADCP,ioos:station:wmo:42384:1,2020-09-10T03:32:00Z,27.9920,-90.3255,12.8,29.6,11111222
ADCP,ioos:station:wmo:42384:1,2020-09-10T03:42:00Z,27.9920,-90.3255,12.8,29.5,11111222
ADCP,ioos:station:wmo:42384:1,2020-09-10T03:52:00Z,27.9920,-90.3255,12.8,29.5,11111222
ADCP,ioos:station:wmo:42384:1,2020-09-10T04:02:00Z,27.9920,-90.3255,12.8,29.6,11111222
ADCP,ioos:station:wmo:42384:1,2020-09-10T04:12:00Z,27.9920,-90.3255,12.8,29.6,11111222
ADCP,ioos:station:wmo:42384:1,2020-09-10T04:22:00Z,27.9920,-90.3255,12.9,29.5,11111222
ADCP,ioos:station:wmo:42384:1,2020-09-10T04:32:00Z,27.9920,-90.3255,12.8,29.5,11111222
ADCP,ioos:station:wmo:42384:1,2020-09-10T04:42:00Z,27.9920,-90.3255,12.8,29.5,11111222
ADCP,ioos:station:wmo:42384:1,2020-09-10T04:53:00Z,27.9920,-90.3255,12.8,29.5,11111222
ADCP,ioos:station:wmo:42384:1,2020-09-10T05:03:00Z,27.9920,-90.3255,13.0,29.5,11111222
ADCP,ioos:station:wmo:42384:1,2020-09-10T05:13:00Z,27.9920,-90.3255,12.9,29.5,11111222
ADCP,ioos:station:wmo:42384:1,2020-09-10T05:23:00Z,27.9920,-90.3255,12.8,29.5,11111222
ADCP,ioos:station:wmo:42384:1,2020-09-10T05:33:00Z,27.9920,-90.3255,12.9,29.5,11111222
ADCP,ioos:station:wmo:42384:1,2020-09-10T05:43:00Z,27.9920,-90.3255,13.0,29.5,11111222
ADCP,ioos:station:wmo:42384:1,2020-09-10T05:53:00Z,27.9920,-90.3255,12.9,29.5,11111222
ADCP,ioos:station:wmo:42384:1,2020-09-10T06:03:00Z,27.9920,-90.3255,13.0,29.5,11111222
ADCP,ioos:station:wmo:42384:1,2020-09-10T06:13:00Z,27.9920,-90.3255,12.9,29.5,11111222
ADCP,ioos:station:wmo:42384:1,2020-09-10T06:23:00Z,27.9920,-90.3255,12.8,29.5,11111222
ADCP,ioos:station:wmo:42384:1,2020-09-10T06:33:00Z,27.9920,-90.3255,13.0,29.5,11111222
ADCP,ioos:station:wmo:42384:1,2020-09-10T06:43:00Z,27.9920,-90.3255,12.9,29.5,11111222
ADCP,ioos:station:wmo:42384:1,2020-09-10T06:53:00Z,27.9920,-90.3255,12.8,29.5,11111222
ADCP,ioos:station:wmo:42384:1,2020-09-10T07:03:00Z,27.9920,-90.3255,12.9,29.5,11111222
ADCP,ioos:station:wmo:42384:1,2020-09-10T07:13:00Z,27.9920,-90.3255,12.9,29.5,11111222
ADCP,ioos:station:wmo:42384:1,2020-09-10T07:23:00Z,27.9920,-90.3255,12.8,29.5,11111222
ADCP,ioos:station:wmo:42384:1,2020-09-10T07:33:00Z,27.9920,-90.3255,12.9,29.5,11111222
ADCP,ioos:station:wmo:42384:1,2020-09-10T07:43:00Z,27.9920,-90.3255,12.9,29.5,11111222
ADCP,ioos:station:wmo:42384:1,2020-09-10T07:53:00Z,27.9920,-90.3255,13.0,29.5,11111222
ADCP,ioos:station:wmo:42384:1,2020-09-10T08:03:00Z,27.9920,-90.3255,13.0,29.5,11111222
ADCP,ioos:station:wmo:42384:1,2020-09-10T08:13:00Z,27.9920,-90.3255,13.0,29.5,11111222
ADCP,ioos:station:wmo:42384:1,2020-09-10T08:23:00Z,27.9920,-90.3255,12.8,29.5,11111222
ADCP,ioos:station:wmo:42384:1,2020-09-10T08:33:00Z,27.9920,-90.3255,12.9,29.5,11111222
ADCP,ioos:station:wmo:42384:1,2020-09-10T08:43:00Z,27.9920,-90.3255,12.9,29.5,11111222
ADCP,ioos:station:wmo:42384:1,2020-09-10T08:53:00Z,27.9920,-90.3255,12.8,29.5,11111222
ADCP,ioos:station:wmo:42384:1,2020-09-10T09:03:00Z,27.9920,-90.3255,12.9,29.5,11111222
ADCP,ioos:station:wmo:42384:1,2020-09-10T09:13:00Z,27.9920,-90.3255,12.9,29.5,11111222
ADCP,ioos:station:wmo:42384:1,2020-09-10T09:23:00Z,27.9920,-90.3255,12.9,29.5,11111222
ADCP,ioos:station:wmo:42384:1,2020-09-10T09:33:00Z,27.9920,-90.3255,12.9,29.5,11111222
ADCP,ioos:station:wmo:42384:1,2020-09-10T09:43:00Z,27.9920,-90.3255,13.0,29.5,11111222
ADCP,ioos:station:wmo:42384:1,2020-09-10T09:53:00Z,27.9920,-90.3255,13.0,29.5,11111222
ADCP,ioos:station:wmo:42384:1,2020-09-10T10:03:00Z,27.9920,-90.3255,12.9,29.5,11111222
ADCP,ioos:station:wmo:42384:1,2020-09-10T10:13:00Z,27.9920,-90.3255,12.8,29.5,11111222
ADCP,ioos:station:wmo:42384:1,2020-09-10T10:23:00Z,27.9920,-90.3255,12.9,29.6,11111222
ADCP,ioos:station:wmo:42384:1,2020-09-10T10:33:00Z,27.9920,-90.3255,12.9,29.5,11111222
ADCP,ioos:station:wmo:42384:1,2020-09-10T10:43:00Z,27.9920,-90.3255,12.9,29.5,11111222
ADCP,ioos:station:wmo:42384:1,2020-09-10T10:53:00Z,27.9920,-90.3255,12.8,29.5,11111222
ADCP,ioos:station:wmo:42384:1,2020-09-10T11:03:00Z,27.9920,-90.3255,13.0,29.5,11111222
ADCP,ioos:station:wmo:42384:1,2020-09-10T11:13:00Z,27.9920,-90.3255,12.9,29.5,11111222
ADCP,ioos:station:wmo:42384:1,2020-09-10T11:23:00Z,27.9920,-90.3255,12.9,29.5,11111222
ADCP,ioos:station:wmo:42384:1,2020-09-10T11:33:00Z,27.9920,-90.3255,12.8,29.5,11111222
ADCP,ioos:station:wmo:42384:1,2020-09-10T11:43:00Z,27.9920,-90.3255,13.0,29.5,11111222
ADCP,ioos:station:wmo:42384:1,2020-09-10T11:53:00Z,27.9920,-90.3255,13.0,29.5,11111222
ADCP,ioos:station:wmo:42384:1,2020-09-10T12:03:00Z,27.9920,-90.3255,12.9,29.5,11111222
ADCP,ioos:station:wmo:42384:1,2020-09-10T12:13:00Z,27.9920,-90.3255,12.8,29.5,11111222
ADCP,ioos:station:wmo:42384:1,2020-09-10T12:23:00Z,27.9920,-90.3255,12.9,29.5,11111222
ADCP,ioos:station:wmo:42384:1,2020-09-10T12:33:00Z,27.9920,-90.3255,12.9,29.5,11111222
ADCP,ioos:station:wmo:42384:1,2020-09-10T12:43:00Z,27.9920,-90.3255,13.0,29.5,11111222
ADCP,ioos:station:wmo:42384:1,2020-09-10T12:53:00Z,27.9920,-90.3255,13.0,29.5,11111222
ADCP,ioos:station:wmo:42384:1,2020-09-10T13:03:00Z,27.9920,-90.3255,12.8,29.5,11111222
ADCP,ioos:station:wmo:42384:1,2020-09-10T13:13:00Z,27.9920,-90.3255,12.8,29.5,11111222
ADCP,ioos:station:wmo:42384:1,2020-09-10T13:23:00Z,27.9920,-90.3255,12.8,29.4,11111222
ADCP,ioos:station:wmo:42384:1,2020-09-10T13:33:00Z,27.9920,-90.3255,12.8,29.4,11111222
ADCP,ioos:station:wmo:42384:1,2020-09-10T13:43:00Z,27.9920,-90.3255,12.7,29.4,11111222
ADCP,ioos:station:wmo:42384:1,2020-09-10T13:53:00Z,27.9920,-90.3255,12.9,29.4,11111222
ADCP,ioos:station:wmo:42384:1,2020-09-10T14:03:00Z,27.9920,-90.3255,12.8,29.4,11111222
ADCP,ioos:station:wmo:42384:1,2020-09-10T14:13:00Z,27.9920,-90.3255,12.7,29.4,11111222
ADCP,ioos:station:wmo:42384:1,2020-09-10T14:23:00Z,27.9920,-90.3255,12.8,29.5,11111222
ADCP,ioos:station:wmo:42384:1,2020-09-10T14:33:00Z,27.9920,-90.3255,12.7,29.5,11111222
ADCP,ioos:station:wmo:42384:1,2020-09-10T14:43:00Z,27.9920,-90.3255,12.8,29.4,11111222
ADCP,ioos:station:wmo:42384:1,2020-09-10T14:53:00Z,27.9920,-90.3255,12.7,29.4,11111222
ADCP,ioos:station:wmo:42384:1,2020-09-10T15:03:00Z,27.9920,-90.3255,12.8,29.4,11111222
ADCP,ioos:station:wmo:42384:1,2020-09-10T15:13:00Z,27.9920,-90.3255,12.8,29.4,11111222
ADCP,ioos:station:wmo:42384:1,2020-09-10T15:23:00Z,27.9920,-90.3255,12.8,29.4,11111222
ADCP,ioos:station:wmo:42384:1,2020-09-10T15:33:00Z,27.9920,-90.3255,12.8,29.4,11111222
ADCP,ioos:station:wmo:42384:1,2020-09-10T15:43:00Z,27.9920,-90.3255,12.8,29.4,11111222
ADCP,ioos:station:wmo:42384:1,2020-09-10T15:53:00Z,27.9920,-90.3255,12.9,29.4,11111222
ADCP,ioos:station:wmo:42384:1,2020-09-10T16:03:00Z,27.9920,-90.3255,12.8,29.4,11111222
ADCP,ioos:station:wmo:42384:1,2020-09-10T16:13:00Z,27.9920,-90.3255,12.8,29.4,11111222
ADCP,ioos:station:wmo:42384:1,2020-09-10T16:23:00Z,27.9920,-90.3255,12.8,29.4,11111222
ADCP,ioos:station:wmo:42384:1,2020-09-10T16:33:00Z,27.9920,-90.3255,12.7,29.4,11111222
ADCP,ioos:station:wmo:42384:1,2020-09-10T16:43:00Z,27.9920,-90.3255,12.8,29.4,11111222
ADCP,ioos:station:wmo:42384:1,2020-09-10T16:53:00Z,27.9920,-90.3255,12.7,29.4,11111222
ADCP,ioos:station:wmo:42384:1,2020-09-10T17:03:00Z,27.9920,-90.3255,12.7,29.4,11111222
ADCP,ioos:station:wmo:42384:1,2020-09-10T17:13:00Z,27.9920,-90.3255,12.8,29.4,11111222
ADCP,ioos:station:wmo:42384:1,2020-09-10T17:23:00Z,27.9920,-90.3255,12.7,29.4,11111222
ADCP,ioos:station:wmo:42384:1,2020-09-10T17:33:00Z,27.9920,-90.3255,12.8,29.4,11111222
ADCP,ioos:station:wmo:42384:1,2020-09-10T17:43:00Z,27.9920,-90.3255,12.7,29.4,11111222
ADCP,ioos:station:wmo:42384:1,2020-09-10T17:53:00Z,27.9920,-90.3255,12.8,29.4,11111222
ADCP,ioos:station:wmo:42384:1,2020-09-10T18:03:00Z,27.9920,-90.3255,12.8,29.4,11111222
ADCP,ioos:station:wmo:42384:1,2020-09-10T18:13:00Z,27.9920,-90.3255,12.8,29.4,11111222
ADCP,ioos:station:wmo:42384:1,2020-09-10T18:23:00Z,27.9920,-90.3255,12.8,29.4,11111222
ADCP,ioos:station:wmo:42384:1,2020-09-10T18:33:00Z,27.9920,-90.3255,12.6,29.4,11111222
ADCP,ioos:station:wmo:42384:1,2020-09-10T18:43:00Z,27.9920,-90.3255,12.7,29.4,11111222
ADCP,ioos:station:wmo:42384:1,2020-09-10T18:53:00Z,27.9920,-90.3255,12.7,29.4,11111222
ADCP,ioos:station:wmo:42384:1,2020-09-10T19:03:00Z,27.9920,-90.3255,12.6,29.4,11111222
ADCP,ioos:station:wmo:42384:1,2020-09-10T19:13:00Z,27.9920,-90.3255,12.7,29.4,11111222
ADCP,ioos:station:wmo:42384:1,2020-09-10T19:23:00Z,27.9920,-90.3255,12.6,29.4,11111222
ADCP,ioos:station:wmo:42384:1,2020-09-10T19:33:00Z,27.9920,-90.3255,12.6,29.4,11111222
ADCP,ioos:station:wmo:42384:1,2020-09-10T19:43:00Z,27.9920,-90.3255,12.6,29.4,11111222
ADCP,ioos:station:wmo:42384:1,2020-09-10T19:53:00Z,27.9920,-90.3255,12.9,29.4,11111222
ADCP,ioos:station:wmo:42384:1,2020-09-10T20:03:00Z,27.9920,-90.3255,12.7,29.4,11111222
ADCP,ioos:station:wmo:42384:1,2020-09-10T20:13:00Z,27.9920,-90.3255,12.7,29.4,11111222
ADCP,ioos:station:wmo:42384:1,2020-09-10T20:23:00Z,27.9920,-90.3255,12.8,29.4,11111222
ADCP,ioos:station:wmo:42384:1,2020-09-10T20:33:00Z,27.9920,-90.3255,12.7,29.5,11111222
ADCP,ioos:station:wmo:42384:1,2020-09-10T20:43:00Z,27.9920,-90.3255,12.7,29.5,11111222
ADCP,ioos:station:wmo:42384:1,2020-09-10T20:53:00Z,27.9920,-90.3255,12.7,29.5,11111222
ADCP,ioos:station:wmo:42384:1,2020-09-10T21:03:00Z,27.9920,-90.3255,12.7,29.5,11111222
ADCP,ioos:station:wmo:42384:1,2020-09-10T21:13:00Z,27.9920,-90.3255,12.7,29.5,11111222
ADCP,ioos:station:wmo:42384:1,2020-09-10T21:23:00Z,27.9920,-90.3255,12.8,29.5,11111222
ADCP,ioos:station:wmo:42384:1,2020-09-10T21:33:00Z,27.9920,-90.3255,12.7,29.5,11111222
ADCP,ioos:station:wmo:42384:1,2020-09-10T21:43:00Z,27.9920,-90.3255,12.7,29.5,11111222
ADCP,ioos:station:wmo:42384:1,2020-09-10T21:53:00Z,27.9920,-90.3255,12.7,29.5,11111222
ADCP,ioos:station:wmo:42384:1,2020-09-10T22:03:00Z,27.9920,-90.3255,12.6,29.5,11111222
ADCP,ioos:station:wmo:42384:1,2020-09-10T22:13:00Z,27.9920,-90.3255,12.6,29.5,11111222
ADCP,ioos:station:wmo:42384:1,2020-09-10T22:23:00Z,27.9920,-90.3255,12.7,29.5,11111222
ADCP,ioos:station:wmo:42384:1,2020-09-10T22:34:00Z,27.9920,-90.3255,12.7,29.5,11111222
ADCP,ioos:station:wmo:42384:1,2020-09-10T22:44:00Z,27.9920,-90.3255,12.8,29.5,11111222
ADCP,ioos:station:wmo:42384:1,2020-09-10T22:54:00Z,27.9920,-90.3255,12.8,29.5,11111222
ADCP,ioos:station:wmo:42384:1,2020-09-10T23:04:00Z,27.9920,-90.3255,12.7,29.5,11111222
ADCP,ioos:station:wmo:42384:1,2020-09-10T23:14:00Z,27.9920,-90.3255,12.7,29.5,11111222
ADCP,ioos:station:wmo:42384:1,2020-09-10T23:24:00Z,27.9920,-90.3255,12.7,29.5,11111222
ADCP,ioos:station:wmo:42384:1,2020-09-10T23:34:00Z,27.9920,-90.3255,12.7,29.5,11111222
ADCP,ioos:station:wmo:42384:1,2020-09-10T23:44:00Z,27.9920,-90.3255,12.8,29.5,11111222
ADCP,ioos:station:wmo:42384:1,2020-09-10T23:54:00Z,27.9920,-90.3255,12.9,29.5,11111222
ADCP,ioos:station:wmo:42384:1,2020-09-11T00:04:00Z,27.9920,-90.3255,13.0,29.4,11111222
ADCP,ioos:station:wmo:42384:1,2020-09-11T00:14:00Z,27.9920,-90.3255,12.9,29.4,11111222
ADCP,ioos:station:wmo:42384:1,2020-09-11T00:24:00Z,27.9920,-90.3255,13.0,29.4,11111222
ADCP,ioos:station:wmo:42384:1,2020-09-11T00:34:00Z,27.9920,-90.3255,12.9,29.4,11111222
ADCP,ioos:station:wmo:42384:1,2020-09-11T00:44:00Z,27.9920,-90.3255,12.9,29.4,11111222
ADCP,ioos:station:wmo:42384:1,2020-09-11T00:54:00Z,27.9920,-90.3255,13.0,29.4,11111222
ADCP,ioos:station:wmo:42384:1,2020-09-11T01:04:00Z,27.9920,-90.3255,13.0,29.4,11111222
ADCP,ioos:station:wmo:42384:1,2020-09-11T01:14:00Z,27.9920,-90.3255,13.0,29.5,11111222
ADCP,ioos:station:wmo:42384:1,2020-09-11T01:24:00Z,27.9920,-90.3255,13.0,29.5,11111222
ADCP,ioos:station:wmo:42384:1,2020-09-11T01:34:00Z,27.9920,-90.3255,13.0,29.5,11111222
ADCP,ioos:station:wmo:42384:1,2020-09-11T01:44:00Z,27.9920,-90.3255,13.0,29.5,11111222
ADCP,ioos:station:wmo:42384:1,2020-09-11T01:54:00Z,27.9920,-90.3255,13.0,29.5,11111222
ADCP,ioos:station:wmo:42384:1,2020-09-11T02:04:00Z,27.9920,-90.3255,12.9,29.6,11111222
ADCP,ioos:station:wmo:42384:1,2020-09-11T02:14:00Z,27.9920,-90.3255,12.9,29.6,11111222
ADCP,ioos:station:wmo:42384:1,2020-09-11T02:24:00Z,27.9920,-90.3255,13.0,29.6,11111222
ADCP,ioos:station:wmo:42384:1,2020-09-11T02:34:00Z,27.9920,-90.3255,13.0,29.6,11111222
ADCP,ioos:station:wmo:42384:1,2020-09-11T02:44:00Z,27.9920,-90.3255,13.1,29.6,11111222
ADCP,ioos:station:wmo:42384:1,2020-09-11T02:54:00Z,27.9920,-90.3255,13.0,29.5,11111222
ADCP,ioos:station:wmo:42384:1,2020-09-11T03:04:00Z,27.9920,-90.3255,13.1,29.5,11111222
ADCP,ioos:station:wmo:42384:1,2020-09-11T03:14:00Z,27.9920,-90.3255,13.2,29.5,11111222
ADCP,ioos:station:wmo:42384:1,2020-09-11T03:24:00Z,27.9920,-90.3255,13.0,29.5,11111222
ADCP,ioos:station:wmo:42384:1,2020-09-11T03:34:00Z,27.9920,-90.3255,13.1,29.5,11111222
ADCP,ioos:station:wmo:42384:1,2020-09-11T03:44:00Z,27.9920,-90.3255,13.1,29.5,11111222
ADCP,ioos:station:wmo:42384:1,2020-09-11T03:54:00Z,27.9920,-90.3255,13.1,29.5,11111222
ADCP,ioos:station:wmo:42384:1,2020-09-11T04:04:00Z,27.9920,-90.3255,13.2,29.5,11111222
ADCP,ioos:station:wmo:42384:1,2020-09-11T04:14:00Z,27.9920,-90.3255,13.1,29.5,11111222
ADCP,ioos:station:wmo:42384:1,2020-09-11T04:24:00Z,27.9920,-90.3255,13.3,29.5,11111222
ADCP,ioos:station:wmo:42384:1,2020-09-11T04:34:00Z,27.9920,-90.3255,13.1,29.5,11111222
ADCP,ioos:station:wmo:42384:1,2020-09-11T04:44:00Z,27.9920,-90.3255,13.2,29.5,11111222
ADCP,ioos:station:wmo:42384:1,2020-09-11T04:54:00Z,27.9920,-90.3255,13.2,29.5,11111222
ADCP,ioos:station:wmo:42384:1,2020-09-11T05:04:00Z,27.9920,-90.3255,13.1,29.5,11111222
ADCP,ioos:station:wmo:42384:1,2020-09-11T05:14:00Z,27.9920,-90.3255,13.2,29.5,11111222
ADCP,ioos:station:wmo:42384:1,2020-09-11T05:24:00Z,27.9920,-90.3255,13.1,29.4,11111222
ADCP,ioos:station:wmo:42384:1,2020-09-11T05:34:00Z,27.9920,-90.3255,13.3,29.4,11111222
ADCP,ioos:station:wmo:42384:1,2020-09-11T05:44:00Z,27.9920,-90.3255,13.2,29.4,11111222
ADCP,ioos:station:wmo:42384:1,2020-09-11T05:54:00Z,27.9920,-90.3255,13.3,29.4,11111222
ADCP,ioos:station:wmo:42384:1,2020-09-11T06:04:00Z,27.9920,-90.3255,13.3,29.4,11111222
ADCP,ioos:station:wmo:42384:1,2020-09-11T06:14:00Z,27.9920,-90.3255,13.1,29.4,11111222
ADCP,ioos:station:wmo:42384:1,2020-09-11T06:24:00Z,27.9920,-90.3255,13.4,29.4,11111222
ADCP,ioos:station:wmo:42384:1,2020-09-11T06:34:00Z,27.9920,-90.3255,13.2,29.4,11111222
ADCP,ioos:station:wmo:42384:1,2020-09-11T06:44:00Z,27.9920,-90.3255,13.2,29.4,11111222
ADCP,ioos:station:wmo:42384:1,2020-09-11T06:54:00Z,27.9920,-90.3255,13.3,29.5,11111222
ADCP,ioos:station:wmo:42384:1,2020-09-11T07:04:00Z,27.9920,-90.3255,13.3,29.5,11111222
ADCP,ioos:station:wmo:42384:1,2020-09-11T07:14:00Z,27.9920,-90.3255,13.3,29.5,11111222
ADCP,ioos:station:wmo:42384:1,2020-09-11T07:24:00Z,27.9920,-90.3255,13.2,29.5,11111222
ADCP,ioos:station:wmo:42384:1,2020-09-11T07:34:00Z,27.9920,-90.3255,13.2,29.5,11111222
ADCP,ioos:station:wmo:42384:1,2020-09-11T07:44:00Z,27.9920,-90.3255,13.2,29.5,11111222
ADCP,ioos:station:wmo:42384:1,2020-09-11T07:54:00Z,27.9920,-90.3255,13.4,29.5,11111222
ADCP,ioos:station:wmo:42384:1,2020-09-11T08:04:00Z,27.9920,-90.3255,13.4,29.4,11111222
ADCP,ioos:station:wmo:42384:1,2020-09-11T08:14:00Z,27.9920,-90.3255,13.3,29.4,11111222
ADCP,ioos:station:wmo:42384:1,2020-09-11T08:24:00Z,27.9920,-90.3255,13.3,29.4,11111222
ADCP,ioos:station:wmo:42384:1,2020-09-11T08:34:00Z,27.9920,-90.3255,13.3,29.4,11111222
ADCP,ioos:station:wmo:42384:1,2020-09-11T08:44:00Z,27.9920,-90.3255,13.3,29.4,11111222
ADCP,ioos:station:wmo:42384:1,2020-09-11T08:54:00Z,27.9920,-90.3255,13.2,29.4,11111222
ADCP,ioos:station:wmo:42384:1,2020-09-11T09:04:00Z,27.9920,-90.3255,13.1,29.5,11111222
ADCP,ioos:station:wmo:42384:1,2020-09-11T09:14:00Z,27.9920,-90.3255,13.2,29.5,11111222
ADCP,ioos:station:wmo:42384:1,2020-09-11T09:24:00Z,27.9920,-90.3255,13.3,29.4,11111222
ADCP,ioos:station:wmo:42384:1,2020-09-11T09:34:00Z,27.9920,-90.3255,13.4,29.4,11111222
ADCP,ioos:station:wmo:42384:1,2020-09-11T09:44:00Z,27.9920,-90.3255,13.4,29.4,11111222
ADCP,ioos:station:wmo:42384:1,2020-09-11T09:54:00Z,27.9920,-90.3255,13.3,29.4,11111222
ADCP,ioos:station:wmo:42384:1,2020-09-11T10:04:00Z,27.9920,-90.3255,13.3,29.4,11111222
ADCP,ioos:station:wmo:42384:1,2020-09-11T10:14:00Z,27.9920,-90.3255,13.3,29.4,11111222
ADCP,ioos:station:wmo:42384:1,2020-09-11T10:24:00Z,27.9920,-90.3255,13.3,29.4,11111222
ADCP,ioos:station:wmo:42384:1,2020-09-11T10:34:00Z,27.9920,-90.3255,13.3,29.4,11111222
ADCP,ioos:station:wmo:42384:1,2020-09-11T10:44:00Z,27.9920,-90.3255,13.2,29.4,11111222
ADCP,ioos:station:wmo:42384:1,2020-09-11T10:54:00Z,27.9920,-90.3255,13.3,29.4,11111222
ADCP,ioos:station:wmo:42384:1,2020-09-11T11:04:00Z,27.9920,-90.3255,13.3,29.4,11111222
ADCP,ioos:station:wmo:42384:1,2020-09-11T11:14:00Z,27.9920,-90.3255,13.2,29.4,11111222
ADCP,ioos:station:wmo:42384:1,2020-09-11T11:24:00Z,27.9920,-90.3255,13.2,29.4,11111222
ADCP,ioos:station:wmo:42384:1,2020-09-11T11:34:00Z,27.9920,-90.3255,13.2,29.4,11111222
ADCP,ioos:station:wmo:42384:1,2020-09-11T11:44:00Z,27.9920,-90.3255,13.2,29.4,11111222
ADCP,ioos:station:wmo:42384:1,2020-09-11T11:54:00Z,27.9920,-90.3255,13.2,29.4,11111222
ADCP,ioos:station:wmo:42384:1,2020-09-11T12:04:00Z,27.9920,-90.3255,13.2,29.4,11111222
ADCP,ioos:station:wmo:42384:1,2020-09-11T12:14:00Z,27.9920,-90.3255,13.3,29.4,11111222
ADCP,ioos:station:wmo:42384:1,2020-09-11T12:24:00Z,27.9920,-90.3255,13.1,29.4,11111222
ADCP,ioos:station:wmo:42384:1,2020-09-11T12:34:00Z,27.9920,-90.3255,13.1,29.4,11111222
ADCP,ioos:station:wmo:42384:1,2020-09-11T12:44:00Z,27.9920,-90.3255,13.2,29.4,11111222
ADCP,ioos:station:wmo:42384:1,2020-09-11T12:54:00Z,27.9920,-90.3255,13.1,29.4,11111222
ADCP,ioos:station:wmo:42384:1,2020-09-11T13:04:00Z,27.9920,-90.3255,13.3,29.4,11111222
ADCP,ioos:station:wmo:42384:1,2020-09-11T13:14:00Z,27.9920,-90.3255,13.2,29.4,11111222
ADCP,ioos:station:wmo:42384:1,2020-09-11T13:24:00Z,27.9920,-90.3255,13.2,29.4,11111222
ADCP,ioos:station:wmo:42384:1,2020-09-11T13:34:00Z,27.9920,-90.3255,13.1,29.4,11111222
ADCP,ioos:station:wmo:42384:1,2020-09-11T13:44:00Z,27.9920,-90.3255,13.1,29.4,11111222
ADCP,ioos:station:wmo:42384:1,2020-09-11T13:54:00Z,27.9920,-90.3255,13.2,29.4,11111222
ADCP,ioos:station:wmo:42384:1,2020-09-11T14:04:00Z,27.9920,-90.3255,13.1,29.4,11111222
ADCP,ioos:station:wmo:42384:1,2020-09-11T14:14:00Z,27.9920,-90.3255,13.2,29.4,11111222
ADCP,ioos:station:wmo:42384:1,2020-09-11T14:24:00Z,27.9920,-90.3255,13.2,29.4,11111222
ADCP,ioos:station:wmo:42384:1,2020-09-11T14:34:00Z,27.9920,-90.3255,13.2,29.5,11111222
ADCP,ioos:station:wmo:42384:1,2020-09-11T14:44:00Z,27.9920,-90.3255,13.1,29.5,11111222
ADCP,ioos:station:wmo:42384:1,2020-09-11T14:54:00Z,27.9920,-90.3255,13.1,29.6,11111222
ADCP,ioos:station:wmo:42384:1,2020-09-11T15:04:00Z,27.9920,-90.3255,13.0,29.6,11111222
ADCP,ioos:station:wmo:42384:1,2020-09-11T15:14:00Z,27.9920,-90.3255,13.0,29.6,11111222
ADCP,ioos:station:wmo:42384:1,2020-09-11T15:24:00Z,27.9920,-90.3255,13.2,29.7,11111222
ADCP,ioos:station:wmo:42384:1,2020-09-11T15:34:00Z,27.9920,-90.3255,13.1,29.7,11111222
ADCP,ioos:station:wmo:42384:1,2020-09-11T15:44:00Z,27.9920,-90.3255,13.0,29.7,11111222
ADCP,ioos:station:wmo:42384:1,2020-09-11T15:54:00Z,27.9920,-90.3255,13.1,29.7,11111222
ADCP,ioos:station:wmo:42384:1,2020-09-11T16:04:00Z,27.9920,-90.3255,12.9,29.7,11111222
ADCP,ioos:station:wmo:42384:1,2020-09-11T16:15:00Z,27.9920,-90.3255,13.1,29.7,11111222
ADCP,ioos:station:wmo:42384:1,2020-09-11T16:25:00Z,27.9920,-90.3255,12.9,29.7,11111222
ADCP,ioos:station:wmo:42384:1,2020-09-11T16:35:00Z,27.9920,-90.3255,12.9,29.7,11111222
ADCP,ioos:station:wmo:42384:1,2020-09-11T16:45:00Z,27.9920,-90.3255,13.0,29.7,11111222
ADCP,ioos:station:wmo:42384:1,2020-09-11T16:55:00Z,27.9920,-90.3255,13.0,29.7,11111222